Location: Wien
(48.2082°N, 16.3738°E)
Time: 09:45:53
(UTC+02:00)

DOVE 4 - Pass Details

Date: 01 April 2019
Orbit: 587 x 804 km, 97.7° (Epoch: 24 April)

Event Time Altitude Azimuth Distance (km) Brightness Sun altitude
Rises 03:29:41 0° 22° (NNE) 2,870 ? -27.9°
Reaches altitude 10° 03:32:08 10° 34° (NE) 1,943 ? -27.6°
Maximum altitude 03:35:46 29° 95° (E) 1,106 ? -27.2°
Enters shadow 03:36:24 27° 112° (ESE) 1,137 ? -27.1°
